Location: �terpigny
(49.8910°N, 2.9249°E)
Time: 10:29:17
(UTC+00:00)

Cosmos 1602 Rocket - Pass Details

Date: 24 October 2021
Orbit: 603 x 634 km, 82.5° (Epoch: 30 November)

Event Time Altitude Azimuth Distance (km) Brightness Sun altitude
Rises 17:43:40 0° 355° (N) 2,890 7.0 -11.0°
Reaches altitude 10° 17:46:00 10° 2° (N) 1,976 6.1 -11.3°
Maximum altitude 17:50:10 42° 74° (ENE) 867 3.8 -12.0°
Drops below altitude 10° 17:54:17 10° 146° (SSE) 1,949 5.8 -12.7°
Sets 17:56:34 0° 154° (SSE) 2,846 6.7 -13.0°
